Location: Rayville (historical)
(39.9992°N, 99.6815°W)
Time: 08:52:36
(UTC+00:00)

Cosmos 2369 Rocket - Pass Details

Date: 18 February 2020
Orbit: 827 x 854 km, 71.0° (Epoch: 03 April)

Event Time Altitude Azimuth Distance (km) Brightness Sun altitude
Rises 00:45:38 0° 154° (SSE) 3,367 5.2 -6.3°
Reaches altitude 10° 00:49:01 10° 133° (SE) 2,444 4.3 -6.9°
Maximum altitude 00:52:13 16° 98° (E) 2,079 3.7 -7.5°
Drops below altitude 10° 00:55:27 10° 63° (ENE) 2,465 4.0 -8.1°
Enters shadow 00:56:43 - 53° (NE) 2,777 4.3 -8.4°
